Showing default

IONOSFERA-M 03, 64876

Orbit data source: Space-Track

IONOSFERA-M 03, 64876 is a payload satellite owned by VNIIEM (CIS) in SSO that was launched on Fri, 25 Jul 2025 UTC via a SOYUZ-2-1B launch vehicle from the Vostochny Cosmodrome (VOSTO). Payload-class satellites include a variety of spacecraft equipped with specific instruments for various scientific and technological missions. These include communications satellites like Starlink; space stations such as the ISS; scientific satellites like the Hubble; Earth observation satellites from companies like Planet Labs, Umbra, and HawkEye 360; GPS; miniature CubeSats for education and research; and military/defense satellites.

Loading next visibility...
Identifier
64876, 2025-155A
Orbit
SSO
Country
Flag of CISCIS
Related business
Manufacturer
VNIIEM
Mission
Operational Civil Science
Bus & Motor
IONOSFERA-M, Unknown motor
Mass
430 kg wet, 430 kg dry
Launch date (UTC)
2025-07-25 (9 months ago)
Launch vehicle
SOYUZ-2-1B
Launch site
Vostochny Cosmodrome (VOSTO)
Object type
Payload
Rocket body
Debris
Shape & HBR
Box + 1 Ant, 1.9 m
Radar Cross Section
2.359 m², Large (>1 m²)

Expand to show TLE details & history
Last TLE update: 7 hours ago

TLE from 7 hours ago
0 IONOSFERA-M 03
1 64876U 25155A   26121.15561675  .00000062  00000-0  48081-4 0  9990
2 64876  98.5996  84.2540 0001767  37.8458 322.2844 14.21478148 39724
Epoch: 2026-05-01T03:44Z
TLE epoch observation values (Epoch: 2026-05-01T03:44:05.287Z)
Latitude
0.00003°
Longitude
169.14004°
Altitude
822.272 km
Speed
7.442 km/s
True Right ascension
05h 37m 00s
True Declination
0° 00' 00"
Sunlit
Object was in daylight at epoch
Visualization orbit readout
Latitude
Unknown
Longitude
Unknown
Altitude
Unknown
Speed
Unknown
Apparent Right ascension
Unknown
Apparent Declination
Unknown
Sunlit
N/A
Visualization observer readout
Local Sidereal Time
18:11:35
Azimuth
Unknown
Elevation
Unknown
Doppler factor
Unknown
Orbital elements
Apogee altitude
818.781 km
Perigee altitude
816.238 km
Semi-major axis
7,195.647 km
Eccentricity
0.00018
Inclination
98.5996°
RAAN
84.254°
Arg. of periapsis
37.8458°
True anomaly
322.27201°
Mean anomaly
322.2844°
Eccentric anomaly
322.27821°
Mean motion
3.55581 °/min
Orbital period
101.24 mins
BSTAR
0.000048081
Loading maneuver chart data...
Computing Atmospheric mass density...
Loading historical data...
Loading historical data...
Loading historical data...
Loading historical data...
Loading historical data...
Loading historical data...
Loading historical data...

Documentation

Showing up to 5 results
|